APSTAR-7 (38107 NORAD) Tracking and Keplerian Element Data

This shows tracking and keplerian element data for the satellite.

Feedback or suggestion? Click here.




ElementValue
Catalog38107
NameAPSTAR-7
Epoch Orbit5000
Epoch Day353.63804495
Epoch Year2025
RAAN72.8409
Inclination0.0278
Eccentricity0.0002902
Argument of Perigee215.8895
Mean Anonmoly105.9546
Mean Motion1.00271671
Decay Rate-7.7E-07
L11 38107U 12013A 25353.63804495 -.00000077 00000+0 00000+0 0 9996
L22 38107 0.0278 72.8409 0002902 215.8895 105.9546 1.00271671 50009



Live tracking and technical data element details for APSTAR-7 (NORAD 38107). APSTAR-7 can be tracked NOW for your location showing map with azimuth and elevation plus other details from your city location.







IsCatalogInMostPopularTable: catalog: 38107, numindb: 649
Update: records affected: 1



GetName: 38107 APSTAR-7

Hit Count: updated at: Thu, 16 Apr 2026 04:55:46 GMT